Regional Weather Roundup
Issued by NWS Sioux Falls, SD

Home | Current Version | Previous Version | Text Only | Print | Product List | Glossary On
Versions: 1 2 3 4 5 6 7 8 9 10 11 12 13 14 15 16 17 18 19 20 21 22 23 24 25 26 27 28 29 30 31 32 33 34 35 36 37 38 39 40 41 42 43 44 45 46 47 48 49 50
000
ASUS43 KFSD 292310
RWRFSD

WEATHER ROUNDUP FOR SE SOUTH DAKOTA/SW MINNESOTA/NW IOWA
NATIONAL WEATHER SERVICE SIOUX FALLS SD
600 PM CDT MON JUN 29 2015

NOTE: "FAIR" INDICATES FEW OR NO CLOUDS BELOW 12,000 FEET WITH NO
SIGNIFICANT WEATHER AND OR OBSTRUCTIONS TO VISIBILITY.


SDZ038>040-050-052>070-300000-
SOUTHEAST SOUTH DAKOTA

CITY           SKY/WX    TMP DP  RH WIND       PRES   REMARKS
BROOKINGS      SUNNY     81  63  54 NW9       29.92S
CHAMBERLAIN    SUNNY     91  55  30 NW9       29.93S
HURON          SUNNY     86  63  45 N7        29.89F
MADISON        FAIR      81  63  54 NW10      29.92F
MITCHELL       SUNNY     87  60  40 CALM      29.91F
SIOUX FALLS    SUNNY     82  59  45 NW7       29.91S HAZE
WINNER         FAIR      93  49  22 NW10      29.96F
YANKTON        SUNNY     84  61  45 N5        29.91S
$$

MNZ071-072-080-081-089-090-097-098-300000-
SOUTHWEST MINNESOTA

CITY           SKY/WX    TMP DP  RH WIND       PRES   REMARKS
FAIRMONT       SUNNY     79  61  53 NW9       29.85F
JACKSON        SUNNY     79  61  53 W10G16    29.88S
LUVERNE        SUNNY     81  57  44 NW8       29.91S
MARSHALL       SUNNY     79  61  53 NW9       29.86F
MONTEVIDEO     SUNNY     79  64  61 N6        29.85S
PIPESTONE      SUNNY     79  61  53 NW9       29.92S
REDWOOD FALLS  SUNNY     80  63  55 W12       29.83F
TRACY          SUNNY     79  62  55 W6        29.87F
WINDOM         SUNNY     79  61  53 W12       29.88S
WORTHINGTON    SUNNY     77  61  57 NW9       29.90S
$$

IAZ001>003-012>014-020>022-031-032-NEZ013-014-SDZ071-300000-
NORTHWEST IOWA

CITY           SKY/WX    TMP DP  RH WIND       PRES   REMARKS
CHEROKEE       SUNNY     79  63  57 NW6       29.89F
DENISON        SUNNY     79  63  57 NW8       29.89F
ESTHERVILLE    SUNNY     78  62  57 W8        29.87S
LE MARS        SUNNY     81  63  54 NW10      29.91F
ORANGE CITY    SUNNY     77  61  57 NW10      29.92S
SHELDON        SUNNY     79  61  53 NW9       29.89S
SIOUX CITY     SUNNY     83  59  44 NW9       29.91R
SPENCER        SUNNY     80  61  52 NW9       29.89S
STORM LAKE     SUNNY     79  64  61 NW7       29.91S
$$

ABBREVIATIONS USED IN REMARKS
   TC - TEMPERATURE IN CELSIUS
  WCI - WIND CHILL INDEX
   HX - HEAT INDEX
  VSB - VISIBILITY




USA.gov is the U.S. government's official web portal to all federal, state and local government web resources and services.